Location: Fort Worth, Tx
(32.7431°N, 97.3695°W)
Time: 19:48:37
(UTC-04:00)

Tiros 1 despin weight - All Passes

Search period start: 12 April 2024 00:00
Search period end: 22 April 2024 00:00
Orbit: 579 x 623 km, 48.2° (Epoch: 12 April)

Date Brightness Start Highest point End Pass type
(mag) Time Alt. Az. Time Alt. Az. Time Alt. Az.
12 Apr - 00:02:54 10° NW 00:07:13 39° NNE 00:11:30 10° ESE visible
12 Apr - 01:44:15 10° WNW 01:48:21 33° SW 01:52:24 10° SSE night (unlit)
12 Apr - 15:46:19 10° SSE 15:48:42 14° SE 15:51:06 10° E daylight
12 Apr - 17:24:57 10° SW 17:29:25 77° NW 17:33:57 10° NE daylight
12 Apr - 19:07:57 10° WNW 19:11:11 19° NNW 19:14:26 10° NNE daylight
12 Apr - 20:52:29 10° NNW 20:53:51 11° N 20:55:14 10° NNE daylight
12 Apr - 22:33:24 10° NNW 22:36:34 18° NNE 22:39:43 10° ENE visible
13 Apr - 00:13:49 10° NW 00:18:24 69° NE 00:22:56 10° ESE visible
13 Apr - 01:56:16 10° W 01:59:11 17° SW 02:02:06 10° S night (unlit)
13 Apr - 15:55:43 10° SSW 15:59:31 28° SE 16:03:23 10° ENE daylight
13 Apr - 17:36:18 10° WSW 17:40:33 42° NNW 17:44:54 10° NE daylight
13 Apr - 19:20:13 10° NW 19:22:42 14° NNW 19:25:11 10° NNE daylight
13 Apr - 21:03:49 10° NNW 21:05:30 12° N 21:07:11 10° NNE daylight
13 Apr - 22:44:08 10° NNW 22:47:59 25° NNE 22:51:48 10° E visible
14 Apr - 00:24:55 10° WNW 00:29:27 64° SW 00:33:57 10° SE visible
14 Apr - 16:06:05 10° SW 16:10:26 57° SE 16:14:51 10° ENE daylight
14 Apr - 17:48:02 10° W 17:51:51 27° NNW 17:55:42 10° NNE daylight
14 Apr - 19:32:33 10° NNW 19:34:16 12° N 19:36:00 10° NNE daylight
14 Apr - 21:14:41 10° NNW 21:17:06 14° NNE 21:19:30 10° NE daylight
14 Apr - 22:54:57 10° NW 22:59:16 40° NNE 23:03:34 10° ESE visible
15 Apr - 00:36:18 10° WNW 00:40:22 32° SW 00:44:26 10° SSE visible
15 Apr - 14:38:21 10° SSE 14:40:45 14° SE 14:43:10 10° E daylight
15 Apr - 16:17:02 10° SW 16:21:27 75° NW 16:25:58 10° NE daylight
15 Apr - 18:00:03 10° WNW 18:03:14 19° NNW 18:06:26 10° NNE daylight
15 Apr - 19:44:35 10° NNW 19:45:54 11° N 19:47:14 10° NNE daylight
15 Apr - 21:25:25 10° NNW 21:28:36 18° NNE 21:31:46 10° ENE visible
15 Apr - 23:05:51 10° NW 23:10:25 70° NE 23:14:59 10° ESE visible
16 Apr - 00:48:20 10° W 00:51:12 17° SW 00:54:04 10° SSW visible
16 Apr - 14:47:45 10° SSW 14:51:33 29° SE 14:55:24 10° ENE daylight
16 Apr - 16:28:22 10° WSW 16:32:36 42° NNW 16:36:53 10° NE daylight
16 Apr - 18:12:19 10° NW 18:14:44 14° NNW 18:17:09 10° NNE daylight
16 Apr - 19:55:52 10° NNW 19:57:32 12° N 19:59:12 10° NNE daylight
16 Apr - 21:36:09 10° NNW 21:40:00 26° NNE 21:43:50 10° E visible
16 Apr - 23:16:55 10° WNW 23:21:27 63° SW 23:25:58 10° SE visible
17 Apr - 14:58:08 10° SW 15:02:27 57° SE 15:06:51 10° ENE daylight
17 Apr - 16:40:06 10° W 16:43:51 26° NNW 16:47:41 10° NNE daylight
17 Apr - 18:24:38 10° NNW 18:26:18 12° N 18:27:58 10° NNE daylight
17 Apr - 20:06:42 10° NNW 20:09:06 14° NNE 20:11:31 10° NE daylight
17 Apr - 21:46:56 10° NW 21:51:16 40° NNE 21:55:35 10° ESE visible
17 Apr - 23:28:18 10° WNW 23:32:22 32° SW 23:36:24 10° SSE visible
18 Apr - 13:30:20 10° SSE 13:32:45 15° SE 13:35:11 10° E daylight
18 Apr - 15:09:03 10° WSW 15:13:27 74° NW 15:17:57 10° NE daylight
18 Apr - 16:52:07 10° WNW 16:55:14 18° NNW 16:58:23 10° NNE daylight
18 Apr - 18:36:39 10° NNW 18:37:55 11° N 18:39:10 10° NNE daylight
18 Apr - 20:17:25 10° NNW 20:20:35 18° NNE 20:23:46 10° ENE daylight
18 Apr - 21:57:49 10° NW 22:02:23 71° NE 22:06:57 10° ESE visible
18 Apr - 23:40:20 10° W 23:43:10 16° SW 23:46:00 10° SSW visible
19 Apr - 13:39:44 10° SSW 13:43:32 29° SE 13:47:22 10° ENE daylight
19 Apr - 15:20:24 10° WSW 15:24:35 41° NNW 15:28:50 10° NE daylight
19 Apr - 17:04:22 10° NW 17:06:43 14° NNW 17:09:04 10° NNE daylight
19 Apr - 18:47:52 10° NNW 18:49:31 12° N 18:51:09 10° NNE daylight
19 Apr - 20:28:07 10° NNW 20:31:57 26° NNE 20:35:48 10° E daylight
19 Apr - 22:08:53 10° WNW 22:13:24 61° SW 22:17:55 10° SE visible
20 Apr - 13:50:07 10° SW 13:54:25 58° SE 13:58:47 10° ENE daylight
20 Apr - 15:32:06 10° W 15:35:50 26° NNW 15:39:35 10° NNE daylight
20 Apr - 17:16:42 10° NNW 17:18:16 12° N 17:19:51 10° NNE daylight
20 Apr - 18:58:40 10° NNW 19:01:04 14° NNE 19:03:27 10° NE daylight
20 Apr - 20:38:53 10° NW 20:43:12 41° NNE 20:47:31 10° ESE daylight
20 Apr - 22:20:16 10° WNW 22:24:18 31° SW 22:28:20 10° SSE visible
21 Apr - 12:22:15 10° SSE 12:24:42 15° SE 12:27:09 10° E daylight
21 Apr - 14:01:02 10° WSW 14:05:24 73° NW 14:09:52 10° NE daylight
21 Apr - 15:44:08 10° WNW 15:47:11 18° NNW 15:50:17 10° NNE daylight
21 Apr - 17:28:40 10° NNW 17:29:52 11° N 17:31:03 10° NNE daylight
21 Apr - 19:09:21 10° NNW 19:12:31 18° NNE 19:15:42 10° ENE daylight
21 Apr - 20:49:45 10° NW 20:54:19 72° NE 20:58:53 10° ESE daylight
21 Apr - 22:32:18 10° W 22:35:05 16° SW 22:37:52 10° SSW visible
